Dodge City Regional Airport
KDDC : now visible

Airfield :











YOU CAN JOIN US ON...

 
LOGIN :

Register | Disclaimer

   EN    FR    IT 

 









Legend :    VFR   Marginal VFR   IFR   Intensive IFR   Very Intensive IFR
Visi :
Ceiling :
>= 8 km
>= 3000ft
5 to 8 km
1000 to 3000 ft
1500m to 5 km
500 to 1000 ft
800 to 1500m
200 to 500 ft
< 800m
< 200 ft
Symbols :   Thunderstorms  Fog  Heavy snow  Heavy precipitations  Wind > 20 kt






- Airport Elevation : 2594 ft
- IATA code : DDC


KDDC - Dodge City Regional

CURRENT METAR :
  • 170152Z AUTO 00000KT 10SM CLR 12/02 A3028 RMK AO2 SLP252 T01170022

EXPIRED METARs :
  • 170052Z AUTO 00000KT 10SM CLR 14/02 A3027 RMK AO2 SLP250 T01390022
  • 162352Z AUTO 00000KT 10SM CLR 18/02 A3026 RMK AO2 SLP244 T01830022 10217 20183 56006

TAF KDDC
Valid from the 17 at 00:00 until the 18 at 00:00 UTC


162320Z 1700/1724 25005KT P6SM SKC
FM171900 20015G23KT P6SM SKC
KZKC FIR / North America



MET'MAP, your aeronautical weather chart ! - Copyright ORBIFLY December 2007 - Disclaimer

ORBIFLY MET'MAP TEAM :

Programming & Development : Alexandra Zaïnal
Concept & original design : Baudouin d'Aumeries
Assistance for programming : Marc-Olivier Méhu
Technical & hardware support : Manuel Goepfert

Contact : metmap@orbifly.com




SOURCES & CREDITS :

   NOAA       Earth
Advisory